GW2801 Weather Reports


time (UTC)temp
C
wind
direction
speed
KPH
gust
KPH
rain 1hr
cm
rain 24hr
cm
rain mn
cm
humidity
%
barometer
mb
20260505140531 13 29 0.0 1.6 0.00 0.20 0.20 82 1009.4
20260505124944 13 54 0.0 0.0 0.00 0.20 0.20 87 1009.0
20260505124441 13 54 0.0 1.6 0.00 0.20 0.20 86 1008.9
20260505123937 13 64 0.0 3.2 0.00 0.20 0.20 86 1008.9
20260505123434 13 357 0.0 1.6 0.00 0.20 0.20 87 1008.7
20260505122929 14 62 0.0 1.6 0.00 0.20 0.20 89 1008.6
20260505122427 14 62 0.0 0.0 0.00 0.20 0.20 88 1008.4
20260505121924 14 63 0.0 1.6 0.00 0.20 0.20 87 1008.1
20260505121421 14 36 0.0 3.2 0.00 0.20 0.20 88 1008.1
20260505120916 14 55 4.8 6.4 0.00 0.20 0.20 89 1008.3
20260505120413 14 52 0.0 0.0 0.00 0.20 0.20 90 1008.4
20260505115912 14 52 0.0 0.0 0.00 0.20 0.20 89 1008.3
20260505115409 14 47 0.0 0.0 0.00 0.20 0.20 89 1008.2
20260505114907 14 27 0.0 0.0 0.00 0.20 0.20 90 1008.1
20260505114403 15 27 0.0 1.6 0.00 0.20 0.20 89 1008.4
20260505113859 15 26 0.0 0.0 0.00 0.20 0.20 89 1008.3
20260505113356 15 55 0.0 1.6 0.00 0.20 0.20 89 1007.7
20260505112852 15 322 0.0 1.6 0.00 0.20 0.20 90 1007.9
20260505112350 15 301 6.4 6.4 0.00 0.20 0.20 89 1007.6
20260505111845 15 60 1.6 4.8 0.00 0.20 0.20 90 1007.3
20260505111341 15 258 0.0 0.0 0.00 0.20 0.20 92 1007.6
20260505110837 15 254 0.0 1.6 0.00 0.20 0.20 93 1008.4
20260505110334 15 254 0.0 4.8 0.00 0.20 0.20 94 1008.6
20260505101809 15 238 0.0 1.6 0.00 0.18 0.18 93 1007.8
20260505101304 15 242 0.0 0.0 0.00 0.18 0.18 94 1007.4
20260505100801 15 243 1.6 1.6 0.00 0.18 0.18 93 1007.7
20260505100257 15 243 0.0 0.0 0.00 0.18 0.18 93 1007.3
20260505095753 15 243 0.0 0.0 0.00 0.18 0.18 93 1006.8
20260505095246 15 243 0.0 0.0 0.00 0.18 0.18 92 1007.1
20260505094741 15 243 0.0 0.0 0.00 0.18 0.18 92 1006.9
20260505094238 15 243 0.0 0.0 0.00 0.18 0.18 92 1006.9
20260505093734 15 243 0.0 0.0 0.00 0.18 0.18 92 1006.8
20260505093231 15 243 0.0 0.0 0.00 0.18 0.18 92 1006.7
20260505092728 15 243 0.0 0.0 0.00 0.18 0.18 91 1006.7
20260505092227 15 243 1.6 3.2 0.00 0.18 0.18 90 1006.7
20260505091723 15 243 1.6 3.2 0.00 0.18 0.18 89 1005.7
20260505091221 15 161 0.0 4.8 0.18 0.18 0.18 85 1004.8
20260505090719 15 157 6.4 6.4 0.18 0.18 0.18 88 1004.7
20260505090217 15 175 3.2 9.7 0.00 0.15 0.15 91 1005.3
20260505085714 15 138 4.8 6.4 0.00 0.15 0.15 92 1005.9
20260505085212 16 149 3.2 4.8 0.13 0.15 0.15 91 1006.8
20260505084709 16 183 0.0 0.0 0.30 0.15 0.15 92 1007.4
20260505084209 16 184 0.0 0.0 0.30 0.13 0.13 91 1007.9
20260505083705 16 184 1.6 3.2 0.30 0.10 0.10 90 1008.2
20260505083202 16 247 0.0 0.0 0.30 0.08 0.08 89 1008.1
20260505082657 16 247 0.0 0.0 0.13 0.05 0.05 88 1008.0
20260505082155 16 247 0.0 0.0 0.00 0.03 0.03 87 1007.9
20260505081650 16 248 0.0 0.0 0.00 0.03 0.03 86 1007.9
20260505081148 16 247 0.0 1.6 0.18 0.03 0.03 84 1007.6
20260505080645 17 239 0.0 0.0 0.18 0.03 0.03 83 1007.5
20260505080140 17 239 0.0 0.0 0.00 0.00 0.00 80 1007.1
20260505075637 17 216 0.0 0.0 0.00 0.00 0.00 78 1007.3
20260505075134 17 199 0.0 0.0 0.00 0.00 0.00 77 1007.4
20260505074631 17 193 0.0 0.0 0.00 0.00 0.00 74 1007.6
20260505074128 17 50 0.0 0.0 0.00 0.00 0.00 74 1007.4
20260505073626 17 50 0.0 0.0 0.00 0.00 0.00 73 1007.4
20260505073124 17 51 0.0 0.0 0.00 0.00 0.00 74 1007.3
20260505072619 17 51 0.0 0.0 0.00 0.00 0.00 75 1007.4
20260505072116 17 50 0.0 0.0 0.00 0.00 0.00 73 1007.2
20260505071611 17 51 0.0 0.0 0.00 0.00 0.00 73 1007.5
20260505071109 17 51 0.0 0.0 0.00 0.00 0.00 73 1007.4
20260505070606 17 50 0.0 0.0 0.00 0.00 0.00 73 1007.0
20260505065558 17 51 0.0 0.0 0.00 0.00 0.00 75 1007.0
20260505065055 17 50 0.0 0.0 0.00 0.00 0.00 75 1007.1
20260505064552 17 51 0.0 0.0 0.00 0.00 0.00 75 1007.2
20260505064051 17 51 0.0 0.0 0.00 0.00 0.00 74 1007.3
20260505063547 17 51 0.0 0.0 0.00 0.00 0.00 76 1007.6
20260505063043 17 51 0.0 0.0 0.00 0.00 0.00 74 1007.8
20260505062540 17 51 0.0 0.0 0.00 0.00 0.00 74 1007.8
20260505062037 17 51 0.0 0.0 0.00 0.00 0.00 74 1007.7
20260505061535 17 51 0.0 0.0 0.00 0.00 0.00 74 1007.8
20260505061032 17 51 0.0 0.0 0.00 0.00 0.00 73 1007.9
20260505060530 17 51 0.0 0.0 0.00 0.00 0.00 73 1007.9
20260505060026 17 51 0.0 0.0 0.00 0.00 0.00 73 1007.8
20260505055521 17 51 0.0 0.0 0.00 0.00 0.00 73 1007.7
20260505055018 17 50 0.0 0.0 0.00 0.00 0.00 73 1007.8
20260505054516 17 50 0.0 0.0 0.00 0.00 0.00 73 1007.8
20260505054014 17 50 0.0 0.0 0.00 0.00 0.00 73 1007.7
20260505053511 17 50 0.0 0.0 0.00 0.00 0.00 74 1007.9
20260505053008 17 50 0.0 0.0 0.00 0.00 0.00 73 1007.8
20260505052505 17 50 0.0 0.0 0.00 0.00 0.00 73 1007.6
20260505052002 17 5 0.0 0.0 0.00 0.00 0.00 74 1007.6
20260505051458 17 5 0.0 0.0 0.00 0.00 0.00 74 1007.7
20260505050957 17 4 0.0 0.0 0.00 0.00 0.00 74 1007.9
20260505050454 17 4 0.0 0.0 0.00 0.00 0.00 73 1007.8
20260505041422 17 5 0.0 0.0 0.00 0.00 0.00 71 1008.5
20260505040919 17 5 0.0 0.0 0.00 0.00 0.00 70 1008.6
20260505040417 17 5 0.0 0.0 0.00 0.00 0.00 70 1008.6
20260505035913 17 5 0.0 0.0 0.00 0.00 0.00 70 1008.6
20260505035409 18 5 0.0 0.0 0.00 0.00 0.00 70 1008.9
20260505034907 18 5 0.0 0.0 0.00 0.00 0.00 69 1008.9
20260505034403 18 5 0.0 0.0 0.00 0.00 0.00 69 1009.0
20260505033901 18 5 0.0 0.0 0.00 0.00 0.00 68 1009.0
20260505033357 18 4 0.0 0.0 0.00 0.00 0.00 68 1008.9
20260505032855 18 5 0.0 0.0 0.00 0.00 0.00 67 1009.1
20260505032352 18 5 0.0 0.0 0.00 0.00 0.00 67 1009.0
20260505031848 18 5 0.0 0.0 0.00 0.00 0.00 67 1009.2
20260505031345 18 5 0.0 0.0 0.00 0.00 0.00 67 1009.1
20260505030843 19 5 0.0 0.0 0.00 0.00 0.00 66 1009.0
20260505030338 19 5 0.0 0.0 0.00 0.00 0.00 66 1009.0
20260505025834 19 5 0.0 0.0 0.00 0.00 0.00 66 1008.9
20260505025332 19 5 0.0 0.0 0.00 0.00 0.00 66 1008.9
20260505024830 19 5 0.0 0.0 0.00 0.00 0.00 66 1008.9
20260505024327 19 4 0.0 0.0 0.00 0.00 0.00 66 1008.5
20260505023824 19 4 0.0 0.0 0.00 0.00 0.00 66 1008.6
20260505023321 19 4 0.0 0.0 0.00 0.00 0.00 66 1008.5
20260505022819 19 4 0.0 0.0 0.00 0.00 0.00 66 1008.5
20260505022315 19 4 0.0 0.0 0.00 0.00 0.00 65 1008.4
20260505021812 19 13 0.0 0.0 0.00 0.00 0.00 65 1008.3
20260505021309 19 12 0.0 0.0 0.00 0.00 0.00 65 1008.2
20260505020804 19 12 0.0 0.0 0.00 0.00 0.00 65 1008.3
20260505020300 20 11 0.0 0.0 0.00 0.00 0.00 64 1008.2
20260505015757 20 12 0.0 0.0 0.00 0.00 0.00 63 1008.0
20260505015254 20 12 0.0 0.0 0.00 0.00 0.00 63 1008.0
20260505014752 20 12 0.0 0.0 0.00 0.00 0.00 63 1008.0
20260505014249 20 12 0.0 0.0 0.00 0.00 0.00 62 1007.8
20260505013745 20 12 0.0 0.0 0.00 0.00 0.00 61 1007.7
20260505013242 20 12 0.0 0.0 0.00 0.00 0.00 61 1007.7
20260505012740 20 11 0.0 0.0 0.00 0.00 0.00 61 1007.7
20260505012237 20 11 0.0 0.0 0.00 0.00 0.00 60 1007.6
20260505011733 20 12 0.0 0.0 0.00 0.00 0.00 59 1007.5
20260505011231 21 11 0.0 0.0 0.00 0.00 0.00 59 1007.6
20260505010726 21 11 0.0 0.0 0.00 0.00 0.00 58 1007.5
20260505010222 21 12 0.0 0.0 0.00 0.00 0.00 57 1007.6
20260505005719 21 12 0.0 0.0 0.00 0.00 0.00 56 1007.3
20260505005216 21 11 0.0 0.0 0.00 0.00 0.00 56 1007.3
20260505004713 21 11 0.0 0.0 0.00 0.00 0.00 55 1007.2
20260505004209 22 11 0.0 0.0 0.00 0.00 0.00 54 1007.3
20260505003707 22 11 0.0 0.0 0.00 0.00 0.00 53 1007.3
20260505003205 22 11 0.0 0.0 0.00 0.00 0.00 52 1007.3
20260505002700 22 11 0.0 0.0 0.00 0.00 0.00 51 1007.1
20260505002159 22 11 0.0 0.0 0.00 0.00 0.00 52 1007.1
20260505001655 22 122 0.0 1.6 0.00 0.00 0.00 51 1007.1
20260505001153 23 293 0.0 0.0 0.00 0.00 0.00 52 1007.1
20260505000650 23 1 0.0 1.6 0.00 0.00 0.00 51 1007.2
20260505000148 23 3 0.0 0.0 0.00 0.00 0.00 50 1007.3
20260504235643 23 3 1.6 3.2 0.00 0.00 0.00 48 1007.2
20260504235140 23 343 0.0 0.0 0.00 0.00 0.00 48 1007.2
20260504234638 24 343 0.0 1.6 0.00 0.00 0.00 48 1007.0
20260504234135 24 347 1.6 1.6 0.00 0.00 0.00 47 1007.0
20260504233630 24 8 0.0 1.6 0.00 0.00 0.00 47 1007.2
20260504233126 25 243 0.0 0.0 0.00 0.00 0.00 47 1007.0
20260504232625 25 241 0.0 0.0 0.00 0.00 0.00 46 1006.9
20260504232121 25 171 3.2 3.2 0.00 0.00 0.00 44 1006.9
20260504231618 25 63 0.0 1.6 0.00 0.00 0.00 49 1006.9
20260504231114 25 165 0.0 1.6 0.00 0.00 0.00 46 1006.9
20260504230610 25 249 0.0 1.6 0.00 0.00 0.00 45 1007.3
20260504230104 25 305 1.6 1.6 0.00 0.00 0.00 44 1007.0
20260504225601 25 248 1.6 3.2 0.00 0.00 0.00 44 1007.0
20260504225058 25 252 1.6 3.2 0.00 0.00 0.00 44 1007.1
20260504224554 25 304 0.0 4.8 0.00 0.00 0.00 45 1007.0
20260504224051 25 32 1.6 4.8 0.00 0.00 0.00 44 1007.1
20260504223548 25 282 4.8 4.8 0.00 0.00 0.00 43 1007.1
20260504223044 25 243 0.0 3.2 0.00 0.00 0.00 45 1007.4
20260504222541 25 294 0.0 1.6 0.00 0.00 0.00 46 1007.0
20260504222038 26 227 1.6 1.6 0.00 0.00 0.00 45 1007.0
20260504221536 26 338 3.2 3.2 0.00 0.00 0.00 42 1007.2
20260504221032 26 78 3.2 4.8 0.00 0.00 0.00 41 1007.1
20260504220529 26 269 1.6 3.2 0.00 0.00 0.00 42 1007.2
20260504220027 26 244 1.6 1.6 0.00 0.00 0.00 44 1007.1
20260504215523 26 319 0.0 0.0 0.00 0.00 0.00 45 1007.2
20260504215020 26 2 0.0 1.6 0.00 0.00 0.00 42 1007.1
20260504214516 26 228 0.0 1.6 0.00 0.00 0.00 42 1007.0
20260504214012 26 248 0.0 1.6 0.00 0.00 0.00 44 1007.4
20260504213508 26 307 0.0 0.0 0.00 0.00 0.00 47 1007.4
20260504213006 26 339 3.2 3.2 0.00 0.00 0.00 45 1007.5
20260504212501 26 196 0.0 3.2 0.00 0.00 0.00 42 1007.6
20260504211959 26 255 3.2 6.4 0.00 0.00 0.00 44 1007.5
20260504211455 26 41 1.6 3.2 0.00 0.00 0.00 43 1007.4
20260504210954 26 250 1.6 3.2 0.00 0.00 0.00 40 1007.5
20260504210450 26 37 1.6 1.6 0.00 0.00 0.00 43 1007.6
20260504205947 26 223 1.6 3.2 0.00 0.00 0.00 43 1007.7
20260504205444 26 318 0.0 6.4 0.00 0.00 0.00 42 1007.7
20260504204943 26 255 0.0 3.2 0.00 0.00 0.00 41 1007.8
20260504204440 26 248 0.0 0.0 0.00 0.00 0.00 43 1007.8
20260504203939 26 7 1.6 3.2 0.00 0.00 0.00 42 1008.1
20260504203437 26 72 0.0 3.2 0.00 0.00 0.00 42 1008.1
20260504202932 26 302 1.6 3.2 0.00 0.00 0.00 41 1008.1
20260504202429 26 269 3.2 3.2 0.00 0.00 0.00 43 1008.1
20260504201926 26 20 4.8 6.4 0.00 0.00 0.00 42 1008.3
20260504201423 26 349 1.6 1.6 0.00 0.00 0.00 43 1008.3
20260504200920 26 289 0.0 3.2 0.00 0.00 0.00 44 1008.4
20260504200417 26 299 4.8 4.8 0.00 0.00 0.00 42 1008.4
20260504195914 26 297 3.2 4.8 0.00 0.00 0.00 44 1008.2
20260504195409 26 29 0.0 3.2 0.00 0.00 0.00 44 1008.5
20260504194906 26 171 3.2 3.2 0.00 0.00 0.00 44 1008.4
20260504194402 26 344 0.0 3.2 0.00 0.00 0.00 44 1008.6
20260504193858 26 321 3.2 4.8 0.00 0.00 0.00 42 1008.9
20260504193355 26 207 3.2 6.4 0.00 0.00 0.00 42 1008.4
20260504192854 26 355 1.6 3.2 0.00 0.00 0.00 47 1008.6
20260504192352 26 295 1.6 4.8 0.00 0.00 0.00 45 1008.6
20260504191850 26 353 1.6 3.2 0.00 0.00 0.00 42 1008.7
20260504191348 27 261 0.0 6.4 0.00 0.00 0.00 41 1009.0
20260504190843 27 196 3.2 3.2 0.00 0.00 0.00 39 1008.7
20260504190339 27 152 3.2 3.2 0.00 0.00 0.00 42 1009.0
20260504185836 27 153 0.0 1.6 0.00 0.00 0.00 45 1008.9
20260504185333 27 288 1.6 1.6 0.00 0.00 0.00 42 1008.9
20260504184829 27 300 3.2 3.2 0.00 0.00 0.00 40 1008.7
20260504184325 27 249 0.0 3.2 0.00 0.00 0.00 45 1008.5
20260504183820 27 196 3.2 4.8 0.00 0.00 0.00 41 1008.7
20260504183318 27 275 1.6 4.8 0.00 0.00 0.00 44 1008.9
20260504182816 27 274 3.2 3.2 0.00 0.00 0.00 43 1009.0
20260504182313 26 281 0.0 3.2 0.00 0.00 0.00 46 1008.9
20260504181810 27 281 4.8 4.8 0.00 0.00 0.00 40 1008.9
20260504181307 27 281 0.0 3.2 0.00 0.00 0.00 44 1008.7
20260504180807 27 15 4.8 6.4 0.00 0.00 0.00 42 1008.9
20260504180304 27 188 1.6 3.2 0.00 0.00 0.00 46 1008.9
20260504175802 27 239 3.2 3.2 0.00 0.00 0.00 46 1008.9
20260504175258 26 323 0.0 9.7 0.00 0.00 0.00 42 1008.9
20260504174757 26 278 6.4 9.7 0.00 0.00 0.00 45 1009.1
20260504174254 26 293 3.2 4.8 0.00 0.00 0.00 45 1009.3
20260504173750 27 253 3.2 4.8 0.00 0.00 0.00 41 1009.1
20260504173247 26 249 0.0 1.6 0.00 0.00 0.00 46 1009.0
20260504172744 26 212 0.0 3.2 0.00 0.00 0.00 43 1009.1
20260504172241 26 281 6.4 6.4 0.00 0.00 0.00 41 1009.1
20260504171737 26 170 3.2 4.8 0.00 0.00 0.00 42 1009.3
20260504171234 25 236 1.6 3.2 0.00 0.00 0.00 43 1009.3
20260504170731 26 243 0.0 4.8 0.00 0.00 0.00 45 1009.4
20260504170228 26 14 0.0 3.2 0.00 0.00 0.00 45 1009.4
20260504160147 23 296 1.6 3.2 0.00 0.00 0.00 46 1010.0
20260504151114 22 284 0.0 3.2 0.00 0.00 0.00 47 1010.2
20260504150612 22 284 3.2 4.8 0.00 0.00 0.00 49 1010.3
20260504150109 21 299 6.4 9.7 0.00 0.00 0.00 47 1010.5